Decatur, IL

7:33 AM CDT on May 27, 2017 (GMT -0500)
Decatur

Weather History for KDEC - July, 2014

Change the Weather History Date:

Sunday, July 27, 2014

  Actual Average Record
Temperature  
Mean Temperature 77 °F 75 °F  
Max Temperature 87 °F 86 °F 98 °F (1997)
Min Temperature 67 °F 64 °F 48 °F (2004)
Degree Days  
Heating Degree Days 0 0  
Month to date heating degree days 2 0  
Since 1 June heating degree days 3 17  
Since 1 July heating degree days 2 0  
Cooling Degree Days 12 10  
Month to date cooling degree days 166 292  
Year to date cooling degree days 587 608  
Since 1 June cooling degree days 442 521  
Growing Degree Days 28 (Base 50)    
Moisture  
Dew Point 67 °F    
Average Humidity 72    
Maximum Humidity 100    
Minimum Humidity 43    
Precipitation  
Precipitation 0.00 in 0.12 in 0.44 in (2006)
Month to date precipitation 2.44 3.42  
Year to date precipitation 19.00 22.22  
Sea Level Pressure  
Sea Level Pressure 29.84 in    
Wind  
Wind Speed 13 mph (NW)    
Max Wind Speed 25 mph    
Max Gust Speed 37 mph    
Visibility 7 miles    
Events Fog    
T = Trace of Precipitation, MM = Missing Value Source: NWS Daily Summary

Daily Weather History Graph

Daily Weather History Graph

Search for Another Location

Airport or City:

Trip Planner

Search our weather history database for the weather conditions in past years. The results will help you decide how hot, cold, wet, or windy it might be!

Date:

Astronomy

Jul. 27, 2014 Rise Set
Actual Time 5:49 AM CDT 8:13 PM CDT
Civil Twilight 5:19 AM CDT 8:44 PM CDT
Nautical Twilight 4:41 AM CDT 9:22 PM CDT
Astronomical Twilight 3:59 AM CDT 10:03 PM CDT
Moon 6:36 AM CDT 8:23 PM CDT
Length of Visible Light 15h 25m
Length of Day
14h 23m
New Moon, 1% of the Moon is Illuminated
Jul 27
New Moon
Aug 3
First Quarter
Aug 10
Full
Aug 17
Last Quarter
Aug 25
New

Hourly Weather History & Observations

Time (CDT) Temp. Heat Index Dew Point Humidity Pressure Visibility Wind Dir Wind Speed Gust Speed Precip Events Conditions
12:10 AM 71.1 °F - 70.0 °F 96% 29.88 in 0.5 mi East 3.5 mph - N/A Fog Fog
12:23 AM 71.1 °F - 70.0 °F 96% 29.88 in 1.8 mi Calm Calm - N/A   Mostly Cloudy
12:31 AM 71.1 °F - 70.0 °F 96% 29.88 in 2.5 mi Calm Calm - N/A   Mostly Cloudy
12:54 AM 72.0 °F - 70.0 °F 93% 29.86 in 3.0 mi ESE 4.6 mph - N/A   Overcast
1:54 AM 72.0 °F - 70.0 °F 93% 29.81 in 4.0 mi South 4.6 mph - N/A   Scattered Clouds
2:54 AM 72.0 °F - 71.1 °F 97% 29.81 in 5.0 mi NNE 11.5 mph - N/A   Overcast
3:04 AM 72.0 °F - 71.1 °F 97% 29.82 in 5.0 mi NE 4.6 mph - N/A   Overcast
3:54 AM 73.0 °F - 71.1 °F 93% 29.78 in 5.0 mi East 3.5 mph - N/A   Overcast
4:54 AM 72.0 °F - 70.0 °F 93% 29.77 in 5.0 mi SSE 3.5 mph - N/A   Scattered Clouds
5:54 AM 71.1 °F - 69.1 °F 93% 29.78 in 3.0 mi SSW 4.6 mph - N/A   Clear
6:54 AM 73.0 °F - 71.1 °F 93% 29.79 in 3.0 mi West 3.5 mph - N/A   Clear
7:48 AM 75.2 °F - 71.6 °F 89% 29.82 in 5.0 mi WNW 5.8 mph - N/A   Overcast
7:54 AM 75.0 °F - 72.0 °F 90% 29.81 in 5.0 mi WNW 5.8 mph - N/A   Overcast
8:54 AM 75.9 °F - 73.0 °F 91% 29.81 in 4.0 mi NNW 11.5 mph - N/A   Overcast
9:29 AM 77.0 °F - 72.0 °F 84% 29.84 in 5.0 mi NNW 11.5 mph - N/A   Haze
9:37 AM 78.1 °F - 73.0 °F 84% 29.84 in 5.0 mi NW 9.2 mph - N/A   Haze
9:54 AM 79.0 °F - 73.0 °F 82% 29.82 in 6.0 mi NW 10.4 mph - N/A   Haze
10:16 AM 81.0 °F 85.2 °F 72.0 °F 74% 29.85 in 8.0 mi NNW 10.4 mph - N/A   Partly Cloudy
10:54 AM 82.9 °F 88.0 °F 72.0 °F 69% 29.83 in 10.0 mi NW 12.7 mph - N/A   Scattered Clouds
11:54 AM 84.9 °F 90.7 °F 72.0 °F 65% 29.82 in 10.0 mi NW 13.8 mph 19.6 mph N/A   Scattered Clouds
1:54 PM 86.0 °F 89.4 °F 68.0 °F 55% 29.81 in 10.0 mi WNW 24.2 mph 35.7 mph N/A   Partly Cloudy
2:54 PM 84.9 °F 85.9 °F 63.0 °F 48% 29.82 in 10.0 mi WNW 20.7 mph 32.2 mph N/A   Clear
3:54 PM 84.0 °F 83.8 °F 59.0 °F 43% 29.82 in 10.0 mi WNW 17.3 mph 36.8 mph N/A   Clear
4:54 PM 82.9 °F 82.8 °F 59.0 °F 44% 29.83 in 10.0 mi WNW 20.7 mph 34.5 mph N/A   Partly Cloudy
5:54 PM 79.0 °F - 60.1 °F 52% 29.85 in 10.0 mi NW 19.6 mph 32.2 mph N/A   Mostly Cloudy
6:54 PM 78.1 °F - 57.0 °F 48% 29.88 in 10.0 mi WNW 17.3 mph 29.9 mph N/A   Clear
7:54 PM 75.0 °F - 57.0 °F 53% 29.90 in 10.0 mi WNW 11.5 mph 21.9 mph N/A   Clear
8:54 PM 73.0 °F - 57.9 °F 59% 29.91 in 10.0 mi WNW 13.8 mph - N/A   Clear
9:54 PM 71.1 °F - 59.0 °F 66% 29.93 in 10.0 mi WNW 10.4 mph - N/A   Clear
10:54 PM 70.0 °F - 59.0 °F 68% 29.93 in 10.0 mi NW 17.3 mph 24.2 mph N/A   Clear
11:54 PM 69.1 °F - 59.0 °F 70% 29.92 in 10.0 mi WNW 11.5 mph 21.9 mph N/A   Clear